Weather in Stanko

Russia / Ivanovo Oblast     57°27′09″N   41°55′17″E
temp.,
°C
wind,
m/s
gust,
m/s
humid.,
%
clouds,
%
prec.,
mm/h
press.,
hPa
HPBL,
m
21 january, fri
fri2100:00−6s61392100 0.1 1004665
03:00−8s51392100 0.2 1005537
06:00−10s51293100 0.1 1004465
09:00−9sse51194100 0.9 1005498
12:00−8sse51194100 0.8 1006508
15:00−7se41195100 1.6 1005613
18:00−8se51294100 0.9 1005692
21:00−8se51294100 1.7 1005781
22 january, sat
sat2200:00−8se5119399 0.3 1006515
03:00−8se41095100 0.9 1006535
06:00−8se4109497 0.8 1008427
09:00−9ese3109699 0.9 1010294
12:00−7se41094100 0.1 1012434
15:00−6ese4994100 0.2 1014463
18:00−8ese4995100 0.1 1016300
21:00−11e3698100 0.1 1018143
23 january, sun
sun2300:00−12ene1398100 0.1 101956
03:00−11ene119888 0.2 102031
06:00−14e1110093 0.1 10229
09:00−16sse119996 0.1 102510
12:00−8ssw129488 0.1 1027142
15:00−9sw119774 0.1 102910
18:00−16sw1110085 0.0 10329
21:00−19wnw1110098 0.0 10349
24 january, mon
mon2400:00−20w11100100 0.0 10369
03:00−21wnw11100100 0.0 10379
06:00−22nw11100100 0.0 10389
09:00−22sse11100100 0.0 10399
12:00−11s119584 0.0 1039110
15:00−10s119727 0.0 103710
18:00−18sse1110088 0.0 10379
21:00−20sse11100100 0.0 10369
25 january, tue
tue2500:00−19sse22100100 0.0 103525
03:00−17s25100100 0.1 103363
06:00−18s269963 0.0 103087
09:00−17s299837 0.0 1029131
12:00−11ssw489259 0.0 1026253
15:00−10s3109331 0.0 1024335
18:00−11s4129465 0.0 1022337
21:00−12s4129470 0.0 1021302